DAL1714 KLAX-KSEA

Flight info

Callsign DAL1714
Flight time N/A
Altitude 36000
Route LADYJ4 CSTRO SHIMR LKV HAWKZ8
Aircraft B738/M-SDE2E3FGHIRWXY/LB1

Departure

Time 2026-05-05 12:38
Airport Los Angeles International Airport (KLAX)

Arrival

Time N/A
Airport Seattle–Tacoma International Airport (KSEA)
Time Latitude Longitude Altitude Speed Heading
2026-05-05 12:17 33.94708 -118.40783 94 ft 0 kts 163°
2026-05-05 12:30 33.94719 -118.40787 95 ft 4 kts 163°
2026-05-05 12:30 33.94741 -118.40795 92 ft 4 kts 171°
2026-05-05 12:30 33.94759 -118.40791 90 ft 4 kts 249°
2026-05-05 12:31 33.94764 -118.40762 90 ft 4 kts 262°
2026-05-05 12:31 33.94766 -118.40744 92 ft 0 kts 262°
2026-05-05 12:33 33.94766 -118.40745 92 ft 1 kts 262°
2026-05-05 12:33 33.94762 -118.40777 91 ft 5 kts 263°
2026-05-05 12:34 33.94758 -118.40818 91 ft 5 kts 263°
2026-05-05 12:34 33.94758 -118.40858 93 ft 5 kts 287°
2026-05-05 12:34 33.94787 -118.40881 94 ft 6 kts 354°
2026-05-05 12:34 33.94824 -118.40869 95 ft 6 kts 36°
2026-05-05 12:35 33.94841 -118.40812 93 ft 9 kts 82°
2026-05-05 12:35 33.94849 -118.40738 94 ft 9 kts 82°
2026-05-05 12:35 33.94857 -118.40664 93 ft 9 kts 83°
2026-05-05 12:35 33.94871 -118.40525 93 ft 19 kts 82°
2026-05-05 12:36 33.94887 -118.40366 93 ft 19 kts 83°
2026-05-05 12:36 33.94903 -118.40214 95 ft 18 kts 83°
2026-05-05 12:36 33.94919 -118.40065 92 ft 18 kts 83°
2026-05-05 12:36 33.94933 -118.39952 92 ft 11 kts 68°
2026-05-05 12:37 33.94993 -118.39913 93 ft 11 kts 353°
2026-05-05 12:37 33.95041 -118.39950 93 ft 5 kts 276°
2026-05-05 12:37 33.95037 -118.39991 95 ft 9 kts 263°
2026-05-05 12:37 33.95004 -118.40328 99 ft 75 kts 263°
2026-05-05 12:38 33.94912 -118.41211 100 ft 135 kts 263°
2026-05-05 12:38 33.94787 -118.42493 356 ft 163 kts 264°
2026-05-05 12:38 33.94660 -118.43841 1165 ft 163 kts 264°
2026-05-05 12:38 33.94521 -118.45251 1632 ft 183 kts 264°
2026-05-05 12:39 33.94357 -118.46881 1885 ft 207 kts 265°
2026-05-05 12:39 33.94274 -118.48702 2151 ft 225 kts 268°
2026-05-05 12:39 33.94224 -118.50651 2423 ft 244 kts 269°
2026-05-05 12:39 33.94107 -118.52743 2973 ft 254 kts 265°
2026-05-05 12:40 33.93932 -118.54873 3791 ft 255 kts 264°
2026-05-05 12:40 33.93757 -118.56986 4564 ft 258 kts 265°
2026-05-05 12:40 33.93584 -118.59142 5324 ft 260 kts 265°
2026-05-05 12:40 33.93476 -118.61330 6052 ft 263 kts 276°
2026-05-05 12:41 33.94094 -118.63392 6753 ft 266 kts 304°
2026-05-05 12:41 33.95442 -118.64951 7387 ft 272 kts 326°
2026-05-05 12:41 33.97062 -118.66166 7904 ft 276 kts 328°
2026-05-05 12:41 33.98721 -118.67305 7955 ft 272 kts 337°
2026-05-05 12:42 34.00561 -118.67698 8003 ft 272 kts 358°
2026-05-05 12:42 34.02479 -118.67615 8001 ft 278 kts
2026-05-05 12:42 34.04422 -118.67386 8151 ft 283 kts
2026-05-05 12:42 34.06348 -118.66992 8903 ft 284 kts
2026-05-05 12:43 34.08292 -118.66566 9696 ft 284 kts
2026-05-05 12:43 34.10259 -118.66141 10288 ft 291 kts
2026-05-05 12:43 34.12332 -118.65705 10456 ft 313 kts
2026-05-05 12:43 34.14558 -118.65245 10622 ft 334 kts
2026-05-05 12:44 34.16912 -118.64765 10870 ft 350 kts
2026-05-05 12:44 34.19330 -118.64275 11446 ft 354 kts
2026-05-05 12:44 34.21776 -118.63780 12053 ft 359 kts
2026-05-05 12:44 34.24273 -118.63449 12657 ft 362 kts 359°
2026-05-05 12:45 34.26757 -118.63688 13278 ft 364 kts 348°
2026-05-05 12:45 34.29268 -118.64271 13933 ft 368 kts 347°
2026-05-05 12:45 34.31787 -118.64885 14535 ft 372 kts 347°
2026-05-05 12:45 34.34347 -118.65501 15169 ft 375 kts 347°
2026-05-05 12:46 34.36919 -118.66103 15813 ft 378 kts 348°
2026-05-05 12:46 34.39515 -118.66699 16429 ft 382 kts 348°
2026-05-05 12:46 34.42106 -118.67290 17078 ft 384 kts 348°
2026-05-05 12:46 34.44747 -118.67860 17712 ft 387 kts 349°
2026-05-05 12:47 34.47417 -118.68382 18322 ft 390 kts 350°
2026-05-05 12:47 34.50121 -118.68896 18866 ft 393 kts 350°
2026-05-05 12:47 34.52844 -118.69413 19376 ft 397 kts 350°
2026-05-05 12:47 34.55594 -118.69941 19895 ft 400 kts 350°
2026-05-05 12:48 34.58318 -118.70470 20392 ft 403 kts 350°
2026-05-05 12:48 34.61108 -118.71014 20880 ft 407 kts 349°
2026-05-05 12:48 34.63917 -118.71564 21379 ft 410 kts 350°
2026-05-05 12:48 34.66740 -118.72118 21863 ft 413 kts 349°
2026-05-05 12:49 34.69589 -118.72682 22342 ft 416 kts 348°
2026-05-05 12:49 34.72396 -118.73593 22806 ft 418 kts 339°
2026-05-05 12:49 34.75033 -118.75087 23262 ft 419 kts 329°
2026-05-05 12:49 34.77579 -118.76843 23683 ft 422 kts 329°
2026-05-05 12:50 34.80137 -118.78639 24080 ft 425 kts 328°
2026-05-05 12:50 34.82705 -118.80443 24469 ft 427 kts 329°
2026-05-05 12:50 34.85291 -118.82250 24846 ft 429 kts 329°
2026-05-05 12:50 34.87863 -118.84036 25226 ft 431 kts 329°
2026-05-05 12:51 34.90481 -118.85845 25593 ft 434 kts 329°
2026-05-05 12:51 34.93119 -118.87664 25956 ft 436 kts 330°
2026-05-05 12:51 34.95765 -118.89486 26310 ft 438 kts 330°
2026-05-05 12:51 34.98422 -118.91316 26670 ft 440 kts 330°
2026-05-05 12:52 35.01099 -118.93161 27004 ft 442 kts 330°
2026-05-05 12:52 35.03784 -118.95013 27313 ft 445 kts 330°
2026-05-05 12:52 35.06494 -118.96884 27666 ft 446 kts 331°
2026-05-05 12:52 35.09199 -118.98753 28015 ft 448 kts 331°
2026-05-05 12:53 35.11891 -119.00615 28366 ft 450 kts 331°
2026-05-05 12:53 35.14620 -119.02504 28658 ft 452 kts 331°
2026-05-05 12:53 35.17368 -119.04408 28945 ft 454 kts 331°
2026-05-05 12:53 35.20128 -119.06322 29236 ft 456 kts 332°
2026-05-05 12:54 35.25597 -119.10119 30141 ft 451 kts 332°
2026-05-05 12:54 35.28320 -119.12012 30513 ft 449 kts 332°
2026-05-05 12:54 35.31045 -119.13909 30782 ft 450 kts 332°
2026-05-05 12:55 35.33773 -119.15807 31011 ft 452 kts 332°
2026-05-05 12:55 35.36512 -119.17715 31285 ft 452 kts 332°
2026-05-05 12:55 35.39249 -119.19623 31602 ft 451 kts 332°
2026-05-05 12:55 35.41967 -119.21520 31977 ft 449 kts 332°
2026-05-05 12:56 35.44733 -119.23281 32237 ft 448 kts 338°
2026-05-05 12:56 35.47680 -119.24513 32425 ft 448 kts 347°
2026-05-05 12:56 35.50678 -119.25405 32691 ft 448 kts 348°
2026-05-05 12:56 35.53721 -119.26274 33038 ft 446 kts 348°
2026-05-05 12:57 35.56750 -119.27136 33299 ft 447 kts 347°
2026-05-05 12:57 35.59788 -119.28010 33629 ft 445 kts 348°
2026-05-05 12:57 35.62787 -119.28886 34061 ft 442 kts 348°
2026-05-05 12:57 35.65782 -119.29770 34216 ft 444 kts 347°
2026-05-05 12:58 35.68760 -119.30656 34306 ft 447 kts 347°
2026-05-05 12:58 35.71785 -119.31561 34486 ft 447 kts 347°
2026-05-05 12:58 35.74805 -119.32468 34728 ft 446 kts 347°
2026-05-05 12:58 35.77827 -119.33376 34941 ft 446 kts 347°
2026-05-05 12:59 35.80841 -119.34283 35160 ft 445 kts 347°
2026-05-05 12:59 35.83843 -119.35187 35422 ft 443 kts 347°
2026-05-05 12:59 35.86850 -119.36093 35575 ft 444 kts 347°
2026-05-05 13:00 35.92853 -119.37902 35862 ft 446 kts 347°
2026-05-05 13:00 35.95876 -119.38814 36009 ft 447 kts 347°
2026-05-05 13:01 36.07984 -119.42475 35998 ft 443 kts 347°
2026-05-05 13:01 36.13908 -119.44270 36015 ft 440 kts 347°
2026-05-05 13:02 36.19857 -119.46076 36014 ft 439 kts 347°
2026-05-05 13:02 36.25793 -119.47880 36017 ft 438 kts 347°
2026-05-05 13:03 36.31689 -119.49675 36024 ft 438 kts 347°
2026-05-05 13:03 36.37629 -119.51486 36025 ft 439 kts 347°
2026-05-05 13:04 36.43558 -119.53297 36021 ft 439 kts 348°
2026-05-05 13:04 36.49497 -119.55114 36032 ft 439 kts 348°
2026-05-05 13:05 36.55434 -119.56932 36009 ft 440 kts 348°
2026-05-05 13:05 36.61379 -119.58757 36020 ft 439 kts 349°
2026-05-05 13:06 36.67270 -119.60568 36025 ft 439 kts 349°